STARLINK-34349, 64215

Orbit data source: Space-Track

STARLINK-34349, 64215 is a payload satellite owned by SpaceX/Seattle (US) in LEO that was launched on Thu, 05 Jun 2025 UTC via an FALCON 9 launch vehicle from the Air Force Western Test Range (AFWTR). Payload-class satellites include a variety of spacecraft equipped with specific instruments for various scientific and technological missions. These include communications satellites like Starlink; space stations such as the ISS; scientific satellites like the Hubble; Earth observation satellites from companies like Planet Labs, Umbra, and HawkEye 360; GPS; miniature CubeSats for education and research; and military/defense satellites.

Loading next visibility...
Identifier
64215, 2025-117N
Orbit
LEO
Last TLE update
8 hours ago
Origin
Manufacturer
SpaceX/Seattle
Mission
Operational spacecraft
Bus & Motor
STARLINK V2MO, Unknown motor
Mass
575 kg wet, ~530 kg dry
Launch date (UTC)
2025-06-05 (2 weeks ago)
Launch vehicle
FALCON 9
Launch site
Air Force Western Test Range (AFWTR)
Object type
Payload
Rocket body
Debris
Shape & HBR
Unknown
Radar Cross Section
Large (>1 m²)

Expand to show TLE details & history

TLE from 8 hours ago
0 STARLINK-34349
1 64215U 25117N   25169.91668981 -.01482267  00000-0 -14132-1 0  9999
2 64215  53.1597 190.4677 0001227 100.1772 174.2088 15.68858098  4017
Epoch: 2025-06-18T22:00Z
TLE epoch observation values (Epoch: 2025-06-18T22:00:01.999Z)
Latitude
-53.09172°
Longitude
-129.65774°
Altitude
381.428 km
Speed
7.68 km/s
True Right ascension
07h 10m 58s
True Declination
-52° 55' 02"
Sunlit
Object was in daylight at epoch
Visualization orbit readout
Latitude
44.12882°
Longitude
-2.35162°
Altitude
369.128 km
Speed
7.694 km/s
Apparent Right ascension
10h 17m 23s
Apparent Declination
18° 19' 33"
Sunlit
Object is in daylight
Visualization observer readout
Local Sidereal Time
17:06:29
Azimuth
291.781° WNW
Elevation
2.692°
Doppler factor
1
Orbital elements
Apogee altitude
363.253 km
Perigee altitude
361.599 km
Semi-major axis
6,740.563 km
Eccentricity
0.00012
Inclination
53.1597°
RAAN
190.4677°
Arg. of periapsis
100.1772°
True anomaly
Unknown
Mean anomaly
174.2088°
Eccentric anomaly
Unknown
Mean motion
3.92192 °/min
Orbital period
91.79 mins
BSTAR
-0.014132
Loading maneuver chart data...
Loading SW <> Apogee altitude chart data...
Loading historical data...
Loading historical data...
Loading historical data...
Loading historical data...
Loading historical data...
Loading historical data...
Loading historical data...

STARLINK-34349 Visibility forecast

Observer location: undefined°, undefined°

Span
Click to sort rows by Start time (UTC) header in descending order
Start Az.
Max El. time (UTC)
Max El. Az.
Max El.
End time (UTC)
End Az.
4 mins2025-06-19 11:07:02.160Z306.664° NW2025-06-19 11:09:02.160Z145.485° SSE41.091°2025-06-19 11:11:02.160Z134.092° SE
4 mins2025-06-20 03:38:02.160Z208.038° SW2025-06-20 03:40:02.160Z122.056° SE38.486°2025-06-20 03:42:02.160Z62.464° ENE
|